Погода в Нерюнгри

Погода в Нерюнгри : погода сейчас, прогноз погоды и архив. Всё, что Вы хотите узнать о погоде в Нерюнгри!

Хотите узнать прогноз погоды в Нерюнгри? Тогда Вам сюда: Погода в Нерюнгри

Поиск расширенной информации на нашем сайте:

Полезная информация: Веб студия legkosite создание сайта.

Другие новости

Новости СМИ2

Главная страница сайта

Новости сайта

02.10.2013

Напоминаем, что на нашем новом сайте вы можете получить высокодетализированные прогнозы погоды по пунктам России, СНГ и мира (включающие важные для авиации метеовеличины, такие как направление и скорость ветра, видимость, явления погоды, количество и форма облачности, нижняя и верхняя граница облачности), а также ознакомиться с разнообразными материалами по авиационной метеорологии и подборкой полезных ссылок на эту тему.

Сайт Метеоцентр.Азия посвящён разработке технологий оптимизации авиаметеорологического обслуживания, включая проектирование и перспективное создание нескольких автоматизированных авиаметеорологических систем:
- система выпуска высокодетальных прогностических карт явлений погоды для нижнего воздушного пространства по России и ближнему зарубежью;
- система верификации прогнозов TAF (выпускаемых синоптиками официальных АМСГ РФ и ближнего зарубежья) и AUTOTAF (выпускаемых сайтом Метеоцентр.Азия) - выявление ошибок, онлайн-сопоставление с фактической погодой METAR, автоматическое внесение коррективов в прогнозы при резком отклонении фактической погоды от прогноза, подсчёт оправдываемости прогнозов по элементам и в целом;
- система обработки, анализа и отображения авиаметеорологической информации для применения провайдерами метеорологической информации.

Рекомендуем: Договор денежного займа между физическими лицами www.dengiyuga.ru.

Погода в Нерюнгри - сегодня

Время (UTC), дата Ветер
(°,м/с) 
Видим.   Явления Облачность Т
(°С)
Тd
(°С)
f(%) Тe
(°С)
Pmin
(гПа)
dP
(гПа)
Po
(мм)
O2
(г/м3)
Тmin Tmax R s Состояние
почвы
09 17.02.17 320 (СЗ) 20000 м    ясно 
-27 -30.2 74 -32  1031.3  0.3  687  309           
12 17.02.17 350 (С) 20000 м    3/0 верхняя 
[Ci fib]
-28.8 -31.2 80 -32  1032.1  -0.1  687  311    -25.2       
15 17.02.17 тихо ()   20000 м    3/0 верхняя 
[Ci fib]
-31.2 -33 84 -31  1032  -1  687  314           
18 17.02.17 тихо ()   20000 м    3/0 верхняя 
[Ci fib]
-33.7 -35.9 80 -34  1032.4  -0.9  686  317           
21 17.02.17 тихо ()   20000 м    3/0 верхняя 
[Ci fib]
-35.9 -38.1 80 -36  1032.7  -0.8  685  320           
00 18.02.17 тихо ()   20000 м  туман на расстоянии  ясно 
-35.9 -38.1 80 -36  1031.7  -0.9  685  319  -38.7      33  равномерный
сухой снег
100% 
03 18.02.17 050 (СВ) 20000 м    3/0 верхняя 
[Ci fib]
-32.7 -35.1 79 -34  1028.7  -1  684  315           
06 18.02.17 нст () 20000 м    3/0 верхняя 
[Ci fib]
-25.9 -29.8 70 -26  1023.5  -1.8  683  305           
09 18.02.17 нст () 20000 м    3/0 верхняя 
[Ci fib]
-26.9 -31.5 65 -28  1022.7  -1.1  682  306           
12 18.02.17 060 (СВ) 20000 м    ясно 
-29.4 -32.4 75 -33  1023.7  -0.3  681  309    -24.4       
15 18.02.17 050 (СВ) 20000 м    ясно 
-31.5 -33.9 79 -35  1023.8  -0.7  681  312           
18 18.02.17 050 (СВ) 20000 м    ясно 
-33.8 -35.6 84 -35  1025.2  0.1  681  315           
21 18.02.17 тихо ()   20000 м    3/0 верхняя 
[Ci fib]
-35.3 -37.1 83 -35  1026.6  0.5  681  317           
00 19.02.17 тихо ()   20000 м    3/0 верхняя 
[Ci fib]
-37 -38.5 86 -37  1028.5  682  320  -37.4      33  равномерный
сухой снег
100% 
03 19.02.17 тихо ()   20000 м    3/0 верхняя 
[Ci fib]
-27.6 -31.4 70 -28  1024.3  0.6  683  308           
06 19.02.17 тихо ()   20000 м    1/0 верхняя 
[Ci fib]
-20.7 -27.4 55 -21  1020.9  -0.1  683  299           
09 19.02.17 тихо ()   20000 м    3/0 верхняя 
[Ci fib]
-22.4 -29 55 -22  1027.1  0.3  683  301           
12 19.02.17 тихо ()   20000 м    5/0 верхняя 
[Ci fib]
-24.2 -28.1 70 -24  1023.6  0.7  683  304    -20       
15 19.02.17 тихо ()   20000 м    10/0 верхняя 
[Ci fib]
-26.3 -28.7 80 -26  1025.3  0.6  684  307           
18 19.02.17 тихо ()   20000 м  слаб. снег  10/0 верхняя 
[Cs]
-29.7 -31.5 84 -30  1027.2  0.2  684  311           
21 19.02.17 тихо ()   20000 м  слаб. снег  10/0 верхняя 
[Cs]
-30.8 -32.6 84 -31  1028.8  0.7  684  313           
00 20.02.17 тихо ()   20000 м  слаб. снег  10/0 средняя, верхняя 
[Ac trans|Cs]
-31.9 -33.7 84 -32  1029.9  0.6  685  314  -32.1    0.2  33  равномерный
сухой снег
100% 
03 20.02.17 тихо ()   20000 м  слаб. снег  10/0 средняя, верхняя 
[Ac trans|Cs]
-26.6 -29 80 -27  1027.2  685  307           
06 20.02.17 тихо ()   20000 м  {снег}  10/1 600 м верхняя 
[Sc|Ci fib]
-17.4 -22.4 65 -17  1021.8  -1  684  296           
09 20.02.17 нст () 20000 м    10/6 750 м верхняя 
[Sc|Cs]
-21.2 -25.2 70 -22  1023.2  -0.2  684  300           
Время (UTC), дата Ветер
(°,м/с) 
Видим.   Явления Облачность Т
(°С)
Тd
(°С)
f(%) Тe
(°С)
Pmin
(гПа)
dP
(гПа)
Po
(мм)
O2
(г/м3)
Тmin Tmax R s Состояние
почвы

Для получения пояснительной информации подведите курсор к названию столбца.

ПОГОДА в Нерюнгри - архив

Всё, что Вы хотите узнать о погоде в Нерюнгри - удобно и подробно!

Выберите нужную дату (начиная с 1 января 2015* года) и нажмите кнопку "Найти".
Будут отображены архивные сводки погоды по пункту Нерюнгри, начиная с указанной даты.


Отображать данные в формате CSV (для использования в таблицах Excel)


Внимание! Наш архив погоды предназначен исключительно для личного некоммерческого использования в познавательных целях. Если Вам необходимы официальные справки о состоянии погоды (для производственных, юридических, коммерческих и т.п. целей), обращайтесь в органы Росгидромета.

*Примечание: данная дата относится к архиву по метеостанциям СССР (Россия, СНГ, Балтия).
Архив по метеостанциям Зарубежной Европы и Азии (кроме Китая) хранится 10 дней, по другим регионам земного шара (Китай, Африка, Америка, Австралия, Океания) - 1 день.

Нерюнгри - район местоположения метеостанции


Название, широта, долгота, высота метеостанции:
Нерюнгри (Чульман) 56.8°ш. 124.9°д. 858 м над ур. моря [Российская Федерация]

Дополнительная информация

В oтличие oт бoльшинства пoгoдных сайтoв мы публикуем пoдрoбную метеoинфoрмацию в детальнoм прoфессиoнальнoм фoрмате.

Характеристики температуры и влажнoсти вoздуха измеряются на высoте 2 м в тени вдали oт зданий и деревьев.
Скoрoсть ветра измеряется на высoте 10 м (на урoвне рoста челoвека скoрoсть ветра ниже в 1.5-2 раза). Если метеoстанция нахoдится в гoрoде или в лесу, тo скoрoсть ветра занижена на 2-4 м/с пo сравнению с oткрытым местoм. Скoрoсть ветра над акватoриями крупных рек и oзёр, а также на вершинах хoлмoв на 2-5 м/с выше, чем в oбычных услoвиях.
Атмoсфернoе давление в разных тoчках местнoсти мoжет значительнo oтличаться oт давления на метеoстанции, в зависимoсти oт услoвий рельефа (при пoдъёме на 10 м давление пoнижается примернo на 1 мм рт.ст.).